Miscellaneous Local Product
Issued by NWS Hastings, NE

Home | Current Version | Previous Version | Graphics & Text | Print | Product List | Glossary On
Versions: 1 2 3 4 5 6 7 8 9 10 11 12 13 14 15 16 17 18 19 20 21 22 23 24 25 26 27 28 29 30 31 32 33 34 35 36 37 38 39 40 41 42 43 44 45 46 47 48 49 50
000
AXUS43 KGID 211302
MISGRI

GID CWA HOURLY WEATHER ROUNDUP
NATIONAL WEATHER SERVICE HASTINGS NE
700 AM CST FRI NOV 21 2014

NOTE: "FAIR" INDICATES FEW OR NO CLOUDS BELOW 12,000 FEET WITH NO
SIGNIFICANT WEATHER AND/OR OBSTRUCTIONS TO VISIBILITY.

...SOUTH CENTRAL NEBRASKA...

CITY           SKY/WX    TMP DP  RH WIND       PRES   REMARKS
GRAND ISLAND   PTCLDY    22  16  78 S9        30.11F WCI  12
HASTINGS       MOCLDY    22  16  78 S7        30.10F WCI  13
KEARNEY        MOCLDY    23  18  80 S9        30.09F WCI  13
ORD            PTCLDY    19  15  84 SE7       30.05S WCI  10
YORK           PTCLDY    18  16  93 S8        30.14S WCI   7
AURORA         PTCLDY    18  15  87 S6        30.12S WCI  10
LEXINGTON      CLOUDY    26  21  83 S6        30.05S WCI  19
HOLDREGE       CLOUDY    23  18  83 S5        30.07S WCI  17
HEBRON         PTCLDY    21  16  82 E3        30.15F

...NEBRASKA PANHANDLE...

CITY           SKY/WX    TMP DP  RH WIND       PRES   REMARKS
CHADRON        CLOUDY    22  18  85 SW3       29.89R
ALLIANCE       CLOUDY    30  22  72 S5        29.90S WCI  25
SCOTTSBLUFF    CLOUDY    29  21  72 CALM      29.92S
SIDNEY         MOCLDY    30  21  69 SW9       29.94S WCI  22

...WESTERN AND NORTH CENTRAL NEBRASKA...

CITY           SKY/WX    TMP DP  RH WIND       PRES   REMARKS
VALENTINE      MOCLDY    26  20  77 SW3       29.89F
AINSWORTH      PTCLDY    26  21  82 S15       29.91S WCI  13
ONEILL         CLEAR     25  21  83 S14       30.00S WCI  14
BROKEN BOW     PTCLDY    23  18  81 SE7       30.02S WCI  15
IMPERIAL       PTCLDY    28  21  75 W7        30.00R WCI  21
NORTH PLATTE   CLOUDY    20  16  84 CALM      30.01S
MCCOOK         MOCLDY    20  17  88 SE7       30.04S WCI  11

...EASTERN NEBRASKA...

CITY           SKY/WX    TMP DP  RH WIND       PRES   REMARKS
NORFOLK        PTCLDY    19  15  84 S10       30.11F WCI   7
SO SIOUX CITY  PTCLDY    18  13  80 S10       30.17F WCI   6
TEKAMAH        PTCLDY    12   8  84 S7        30.20F WCI   1
COLUMBUS       PTCLDY    19  12  73 S8        30.16R WCI   9
ALBION         PTCLDY    19  15  83 S7        30.10S WCI  10
OMAHA EPPLEY   CLEAR     18  13  80 SE10      30.24R WCI   6
OFFUTT AFB     CLEAR     17  13  82 SE5       30.23R WCI  10
MILLARD        CLEAR     18  14  83 SE3       30.22R
LINCOLN        MOCLDY    18  14  84 S6        30.21R WCI  10
NEBRASKA CITY  PTCLDY    19  13  79 SE5       30.22R WCI  12
BEATRICE       PTCLDY    21  16  82 SE6       30.18S WCI  13
FALLS CITY     PTCLDY    18  14  84 SE3       30.24R

...NORTHERN KANSAS...

CITY           SKY/WX    TMP DP  RH WIND       PRES   REMARKS
GOODLAND       PTCLDY    26  24  92 S9        29.99F WCI  17
HILL CITY      MOCLDY    22  18  85 CALM      30.09R
NORTON         SUNNY     21  16  79 CALM      30.06S
PHILLIPSBURG   CLEAR     23  19  86 CALM      30.12R
SMITH CENTER   CLEAR     19  16  86 E6        30.13R WCI  11
BELOIT         CLEAR     23  19  86 CALM      30.15S
HAYS           PTCLDY    23  14  68 NE3       30.10R
RUSSELL        PTCLDY    23  19  85 NE6       30.09S WCI  16
CONCORDIA      MOCLDY    20  17  88 E6        30.15S WCI  12
SALINA         PTCLDY    24  17  74 NE3       30.15S
TOPEKA         CLEAR     25  17  72 E8        30.21F WCI  16



USA.gov is the U.S. government's official web portal to all federal, state and local government web resources and services.